Location: Kershaw
(34.5481°N, 80.5823°W)
Time: 22:24:10
(UTC+00:00)

Transit 4A - Pass Details

Date: 14 October 2022
Orbit: 871 x 972 km, 66.8° (Epoch: 08 December)

Event Time Altitude Azimuth Distance (km) Brightness Sun altitude
Exits shadow 08:53:14 - 347° (NNW) 3,349 10.8 -32.3°
Reaches altitude 10° 08:55:51 10° 359° (N) 2,527 10.3 -31.8°
Maximum altitude 09:00:31 24° 53° (NE) 1,720 9.8 -30.8°
Drops below altitude 10° 09:05:09 10° 106° (ESE) 2,518 10.9 -29.9°
Sets 09:08:06 0° 120° (ESE) 3,459 11.6 -29.3°
